SUD013 VQPR-ZULS

Flight info

Callsign SUD013
Flight time N/A
Altitude 35000
Route SUBSU DCT BGD DCT TUMLI DCT NONIM/K0845S1070 DCT RKZ DCT LXA
Aircraft A320/M-SDFGHILORVWY/S

Departure

Time N/A
Airport Paro International Airport (VQPR)

Arrival

Time 2026-04-22 23:46
Airport Lhasa Gonggar International Airport (ZULS)
Time Latitude Longitude Altitude Speed Heading
2026-04-22 23:46 29.29434 90.89997 11607 ft 0 kts 180°
2026-04-22 23:46 29.29435 90.89997 11607 ft 1 kts 180°
2026-04-22 23:47 29.29459 90.89997 11604 ft 4 kts 181°
2026-04-22 23:47 29.29486 90.89998 11594 ft 4 kts 182°
2026-04-22 23:47 29.29513 90.90000 11598 ft 4 kts 184°
2026-04-22 23:47 29.29524 90.90001 11596 ft 1 kts 184°
2026-04-22 23:49 29.29522 90.89990 11607 ft 3 kts 268°
2026-04-22 23:50 29.29525 90.89937 11615 ft 9 kts 270°
2026-04-22 23:50 29.29525 90.89843 11616 ft 14 kts 269°
2026-04-22 23:50 29.29521 90.89717 11616 ft 18 kts 268°
2026-04-22 23:50 29.29518 90.89560 11616 ft 21 kts 269°
2026-04-22 23:51 29.29508 90.89401 11615 ft 17 kts 244°
2026-04-22 23:51 29.29495 90.89301 11615 ft 12 kts 265°
2026-04-22 23:51 29.29525 90.89216 11610 ft 11 kts 322°
2026-04-22 23:51 29.29599 90.89204 11611 ft 10 kts 359°
2026-04-22 23:52 29.29669 90.89203 11610 ft 10 kts 358°
2026-04-22 23:52 29.29736 90.89201 11612 ft 9 kts
2026-04-22 23:52 29.29776 90.89240 11608 ft 8 kts 72°
2026-04-22 23:52 29.29779 90.89283 11615 ft 0 kts 89°
2026-04-22 23:54 29.29779 90.89302 11607 ft 10 kts 89°
2026-04-22 23:54 29.29783 90.89632 11614 ft 75 kts 89°
2026-04-22 23:55 29.29796 90.90474 11603 ft 134 kts 89°
2026-04-22 23:55 29.29816 90.91733 11608 ft 181 kts 89°
2026-04-22 23:55 29.29844 90.93295 11822 ft 201 kts 90°
2026-04-22 23:55 29.29845 90.94876 12641 ft 195 kts 90°
2026-04-22 23:56 29.29836 90.96408 13384 ft 190 kts 91°
2026-04-22 23:56 29.29824 90.97871 13864 ft 178 kts 91°
2026-04-22 23:56 29.29809 90.99289 14097 ft 180 kts 91°
2026-04-22 23:56 29.29761 91.00776 14168 ft 190 kts 94°
2026-04-22 23:57 29.29614 91.02316 14271 ft 200 kts 108°
2026-04-22 23:57 29.29189 91.03865 14405 ft 211 kts 109°
2026-04-22 23:57 29.28699 91.05523 14451 ft 227 kts 103°
2026-04-22 23:57 29.28459 91.07363 14592 ft 242 kts 94°
2026-04-22 23:58 29.28398 91.09358 14721 ft 260 kts 91°
2026-04-22 23:58 29.28382 91.11507 14846 ft 280 kts 90°
2026-04-22 23:58 29.28355 91.13819 14968 ft 300 kts 91°
2026-04-22 23:58 29.28302 91.16290 15090 ft 321 kts 91°